Location: ?ern� Novina
(50.6762°N, 14.8696°E)
Time: 02:55:44
(UTC+00:00)

Meteor 1-14 Rocket - Pass Details

Date: 03 March 2021
Orbit: 834 x 918 km, 81.3° (Epoch: 13 April)

Event Time Altitude Azimuth Distance (km) Brightness Sun altitude
Rises 17:39:28 0° 172° (S) 3,395 7.3 -9.3°
Reaches altitude 10° 17:41:56 10° 167° (SSE) 2,456 6.5 -9.7°
Maximum altitude 17:47:15 49° 94° (E) 1,077 4.4 -10.6°
Drops below altitude 10° 17:52:34 10° 22° (NNE) 2,458 6.4 -11.4°
Sets 17:55:02 0° 17° (NNE) 3,398 7.2 -11.8°
